Time,TemperatureF,DewpointF,PressureIn,WindDirection,WindDirectionDegrees,WindSpeedMPH,WindSpeedGustMPH,Humidity,HourlyPrecipIn,Conditions,Clouds,dailyrainin,SoftwareType,DateUTC
2013-05-11 00:00:00,68.7,63.0,30.06,SSW,201,2.0,10.0,82,0.00,,SKC,0.00,VWS V13.00,2013-05-11 04:00:00,
2013-05-11 00:05:00,68.8,63.1,30.06,SW,235,8.0,10.0,82,0.00,,SKC,0.00,VWS V13.00,2013-05-11 04:05:00,
2013-05-11 00:10:00,68.7,63.0,30.06,SW,231,5.0,8.0,82,0.00,,SKC,0.00,VWS V13.00,2013-05-11 04:10:00,
2013-05-11 00:15:00,68.7,63.0,30.06,SW,222,2.0,9.0,82,0.00,,SKC,0.00,VWS V13.00,2013-05-11 04:15:00,
2013-05-11 00:20:00,68.6,62.9,30.06,SW,226,4.0,8.0,82,0.00,,SKC,0.00,VWS V13.00,2013-05-11 04:20:00,
2013-05-11 00:25:00,68.6,62.9,30.06,SW,232,4.0,9.0,82,0.00,,SKC,0.00,VWS V13.00,2013-05-11 04:25:00,
2013-05-11 00:30:00,68.5,62.8,30.06,SW,221,10.0,10.0,82,0.00,,SKC,0.00,VWS V13.00,2013-05-11 04:30:00,
2013-05-11 00:35:00,68.5,62.8,30.06,SSW,197,3.0,10.0,82,0.00,,SKC,0.00,VWS V13.00,2013-05-11 04:35:00,
2013-05-11 00:40:00,68.4,62.7,30.06,SW,219,3.0,8.0,82,0.00,,SKC,0.00,VWS V13.00,2013-05-11 04:40:00,
2013-05-11 00:45:00,68.4,62.7,30.06,SSW,207,6.0,9.0,82,0.00,,SKC,0.00,VWS V13.00,2013-05-11 04:45:00,
2013-05-11 00:50:00,68.4,62.7,30.06,SW,225,5.0,7.0,82,0.00,,SKC,0.00,VWS V13.00,2013-05-11 04:50:00,
2013-05-11 00:55:00,68.3,62.6,30.06,SSW,192,5.0,8.0,82,0.00,,SKC,0.00,VWS V13.00,2013-05-11 04:55:00,
2013-05-11 01:00:00,68.3,62.6,30.06,SSW,207,2.0,6.0,82,0.00,,SKC,0.00,VWS V13.00,2013-05-11 05:00:00,
2013-05-11 01:05:00,68.2,62.5,30.05,SSW,207,3.0,9.0,82,0.00,,SKC,0.00,VWS V13.00,2013-05-11 05:05:00,
2013-05-11 01:10:00,68.2,62.5,30.05,SW,221,3.0,7.0,82,0.00,,SKC,0.00,VWS V13.00,2013-05-11 05:10:00,
2013-05-11 01:15:00,68.2,62.5,30.05,SSW,209,3.0,8.0,82,0.00,,SKC,0.00,VWS V13.00,2013-05-11 05:15:00,
2013-05-11 01:20:00,68.2,62.5,30.04,South,171,6.0,8.0,82,0.00,,SKC,0.00,VWS V13.00,2013-05-11 05:20:00,
2013-05-11 01:25:00,68.3,62.6,30.04,SW,233,0.0,8.0,82,0.00,,SKC,0.00,VWS V13.00,2013-05-11 05:25:00,
2013-05-11 01:30:00,68.3,62.6,30.04,SSW,192,3.0,9.0,82,0.00,,SKC,0.00,VWS V13.00,2013-05-11 05:30:00,
2013-05-11 01:35:00,68.4,62.7,30.04,SW,215,1.0,7.0,82,0.00,,SKC,0.00,VWS V13.00,2013-05-11 05:35:00,
2013-05-11 01:40:00,68.4,62.7,30.04,South,185,2.0,7.0,82,0.00,,SKC,0.00,VWS V13.00,2013-05-11 05:40:00,
2013-05-11 01:45:00,68.4,62.7,30.03,South,186,1.0,8.0,82,0.00,,SKC,0.00,VWS V13.00,2013-05-11 05:45:00,
2013-05-11 01:50:00,68.4,62.7,30.03,SSW,207,3.0,8.0,82,0.00,,SKC,0.00,VWS V13.00,2013-05-11 05:50:00,
2013-05-11 01:55:00,68.5,62.8,30.03,SSW,208,2.0,6.0,82,0.00,,SKC,0.00,VWS V13.00,2013-05-11 05:55:00,
2013-05-11 02:00:00,68.5,62.8,30.03,SSW,202,2.0,7.0,82,0.00,,SKC,0.00,VWS V13.00,2013-05-11 06:00:00,
2013-05-11 02:05:00,68.5,62.8,30.02,SSW,205,1.0,7.0,82,0.00,,SKC,0.00,VWS V13.00,2013-05-11 06:05:00,
2013-05-11 02:10:00,68.4,62.7,30.02,SSW,207,1.0,7.0,82,0.00,,SKC,0.00,VWS V13.00,2013-05-11 06:10:00,
2013-05-11 02:15:00,68.4,62.7,30.02,SSW,205,1.0,7.0,82,0.00,,SKC,0.00,VWS V13.00,2013-05-11 06:15:00,
2013-05-11 02:20:00,68.4,62.7,30.02,South,180,5.0,8.0,82,0.00,,SKC,0.00,VWS V13.00,2013-05-11 06:20:00,
2013-05-11 02:25:00,68.3,62.6,30.02,SSW,207,3.0,10.0,82,0.00,,SKC,0.00,VWS V13.00,2013-05-11 06:25:00,
2013-05-11 02:30:00,68.3,62.6,30.02,SSE,155,1.0,8.0,82,0.00,,SKC,0.00,VWS V13.00,2013-05-11 06:30:00,
2013-05-11 02:35:00,68.3,62.9,30.02,South,180,0.0,8.0,83,0.00,,SKC,0.00,VWS V13.00,2013-05-11 06:35:00,
2013-05-11 02:40:00,68.2,62.8,30.02,South,169,1.0,6.0,83,0.00,,SKC,0.00,VWS V13.00,2013-05-11 06:40:00,
2013-05-11 02:45:00,68.2,62.8,30.02,South,184,5.0,6.0,83,0.00,,SKC,0.00,VWS V13.00,2013-05-11 06:45:00,
2013-05-11 02:50:00,68.2,62.8,30.02,South,180,5.0,8.0,83,0.00,,SKC,0.00,VWS V13.00,2013-05-11 06:50:00,
2013-05-11 02:55:00,68.3,62.9,30.02,SSW,197,3.0,11.0,83,0.00,,SKC,0.00,VWS V13.00,2013-05-11 06:55:00,
2013-05-11 03:00:00,68.4,63.0,30.02,South,179,5.0,10.0,83,0.00,,SKC,0.00,VWS V13.00,2013-05-11 07:00:00,
2013-05-11 03:05:00,68.4,63.0,30.02,SSW,205,5.0,8.0,83,0.00,,SKC,0.00,VWS V13.00,2013-05-11 07:05:00,
2013-05-11 03:10:00,68.5,63.1,30.02,SW,223,1.0,13.0,83,0.00,,SKC,0.00,VWS V13.00,2013-05-11 07:10:00,
2013-05-11 03:15:00,68.4,63.0,30.02,SW,224,4.0,12.0,83,0.00,,SKC,0.00,VWS V13.00,2013-05-11 07:15:00,
2013-05-11 03:20:00,68.4,63.0,30.02,SW,223,5.0,9.0,83,0.00,,SKC,0.00,VWS V13.00,2013-05-11 07:20:00,
2013-05-11 03:25:00,68.3,62.9,30.02,SSW,204,5.0,10.0,83,0.00,,SKC,0.00,VWS V13.00,2013-05-11 07:25:00,
2013-05-11 03:30:00,68.3,62.9,30.02,SW,215,3.0,7.0,83,0.00,,SKC,0.00,VWS V13.00,2013-05-11 07:30:00,
2013-05-11 03:35:00,68.2,62.8,30.02,SSW,213,5.0,8.0,83,0.00,,SKC,0.00,VWS V13.00,2013-05-11 07:35:00,
2013-05-11 03:40:00,68.2,62.8,30.02,SSW,196,2.0,9.0,83,0.00,,SKC,0.00,VWS V13.00,2013-05-11 07:40:00,
2013-05-11 03:45:00,68.2,62.8,30.02,South,190,3.0,8.0,83,0.00,,SKC,0.00,VWS V13.00,2013-05-11 07:45:00,
2013-05-11 03:50:00,68.2,62.8,30.01,SSW,198,6.0,11.0,83,0.00,,SKC,0.00,VWS V13.00,2013-05-11 07:50:00,
2013-05-11 03:55:00,68.2,62.8,30.02,SW,216,7.0,10.0,83,0.00,,SKC,0.00,VWS V13.00,2013-05-11 07:55:00,
2013-05-11 04:00:00,68.2,62.8,30.01,SSE,157,2.0,8.0,83,0.00,,SKC,0.00,VWS V13.00,2013-05-11 08:00:00,
2013-05-11 04:05:00,68.2,62.8,30.01,SSW,211,7.0,7.0,83,0.00,,SKC,0.00,VWS V13.00,2013-05-11 08:05:00,
2013-05-11 04:10:00,68.2,62.8,30.02,SSW,205,3.0,11.0,83,0.00,,SKC,0.00,VWS V13.00,2013-05-11 08:10:00,
2013-05-11 04:15:00,68.2,62.8,30.01,SSW,198,5.0,9.0,83,0.00,,SKC,0.00,VWS V13.00,2013-05-11 08:15:00,
2013-05-11 04:20:00,68.2,62.8,30.01,WSW,242,6.0,10.0,83,0.00,,SKC,0.00,VWS V13.00,2013-05-11 08:20:00,
2013-05-11 04:25:00,68.2,62.8,30.01,SW,219,4.0,9.0,83,0.00,,SKC,0.00,VWS V13.00,2013-05-11 08:25:00,
2013-05-11 04:30:00,68.2,62.8,30.01,SSW,208,4.0,10.0,83,0.00,,SKC,0.00,VWS V13.00,2013-05-11 08:30:00,
2013-05-11 04:35:00,68.2,62.8,30.01,SSW,198,8.0,10.0,83,0.00,,SKC,0.00,VWS V13.00,2013-05-11 08:35:00,
2013-05-11 04:40:00,68.2,62.8,30.01,SSW,202,5.0,9.0,83,0.00,,SKC,0.00,VWS V13.00,2013-05-11 08:40:00,
2013-05-11 04:45:00,68.1,62.8,30.01,SSW,207,8.0,10.0,83,0.00,,SKC,0.00,VWS V13.00,2013-05-11 08:45:00,
2013-05-11 04:50:00,68.1,62.8,30.01,SSW,204,6.0,8.0,83,0.00,,SKC,0.00,VWS V13.00,2013-05-11 08:50:00,
2013-05-11 04:55:00,68.1,62.8,30.01,SSW,212,4.0,10.0,83,0.00,,SKC,0.00,VWS V13.00,2013-05-11 08:55:00,
2013-05-11 05:00:00,68.1,62.8,30.01,SW,226,5.0,11.0,83,0.00,,SKC,0.00,VWS V13.00,2013-05-11 09:00:00,
2013-05-11 05:05:00,68.1,62.8,30.01,SW,215,3.0,11.0,83,0.00,,SKC,0.00,VWS V13.00,2013-05-11 09:05:00,
2013-05-11 05:10:00,68.1,62.8,30.00,SSW,213,8.0,9.0,83,0.00,,SKC,0.00,VWS V13.00,2013-05-11 09:10:00,
2013-05-11 05:15:00,68.1,62.8,30.01,SSW,207,6.0,9.0,83,0.00,,SKC,0.00,VWS V13.00,2013-05-11 09:15:00,
2013-05-11 05:20:00,68.1,62.8,30.01,SW,216,7.0,9.0,83,0.00,,SKC,0.00,VWS V13.00,2013-05-11 09:20:00,
2013-05-11 05:25:00,68.1,62.8,30.01,South,191,5.0,9.0,83,0.00,,SKC,0.00,VWS V13.00,2013-05-11 09:25:00,
2013-05-11 05:30:00,68.1,62.8,30.01,South,190,3.0,10.0,83,0.00,,SKC,0.00,VWS V13.00,2013-05-11 09:30:00,
2013-05-11 05:35:00,68.1,62.8,30.01,SW,215,3.0,10.0,83,0.00,,SKC,0.00,VWS V13.00,2013-05-11 09:35:00,
2013-05-11 05:40:00,68.1,62.8,30.01,SSW,202,6.0,9.0,83,0.00,,SKC,0.00,VWS V13.00,2013-05-11 09:40:00,
2013-05-11 05:45:00,68.1,62.8,30.01,SW,221,5.0,11.0,83,0.00,,SKC,0.00,VWS V13.00,2013-05-11 09:45:00,
2013-05-11 05:50:00,68.1,62.8,30.01,SW,219,5.0,9.0,83,0.00,,SKC,0.00,VWS V13.00,2013-05-11 09:50:00,
2013-05-11 05:55:00,68.1,62.8,30.01,SW,225,10.0,10.0,83,0.00,,SKC,0.00,VWS V13.00,2013-05-11 09:55:00,
2013-05-11 06:00:00,68.1,62.8,30.01,SSE,151,2.0,10.0,83,0.00,,SKC,0.00,VWS V13.00,2013-05-11 10:00:00,
2013-05-11 06:05:00,68.0,62.7,30.01,SSW,202,5.0,8.0,83,0.00,,SKC,0.00,VWS V13.00,2013-05-11 10:05:00,
2013-05-11 06:10:00,68.0,62.7,30.01,SW,218,6.0,9.0,83,0.00,,SKC,0.00,VWS V13.00,2013-05-11 10:10:00,
2013-05-11 06:15:00,68.1,62.8,30.01,South,188,6.0,8.0,83,0.00,,SKC,0.00,VWS V13.00,2013-05-11 10:15:00,
2013-05-11 06:20:00,68.1,62.8,30.02,SSW,204,5.0,9.0,83,0.00,,SKC,0.00,VWS V13.00,2013-05-11 10:20:00,
2013-05-11 06:25:00,68.1,62.8,30.02,WSW,240,3.0,9.0,83,0.00,,SKC,0.00,VWS V13.00,2013-05-11 10:25:00,
2013-05-11 06:30:00,68.1,62.8,30.02,SSW,196,3.0,9.0,83,0.00,,SKC,0.00,VWS V13.00,2013-05-11 10:30:00,
2013-05-11 06:35:00,68.0,62.7,30.02,SSW,212,2.0,7.0,83,0.00,,SKC,0.00,VWS V13.00,2013-05-11 10:35:00,
2013-05-11 06:40:00,68.0,62.7,30.02,SW,220,4.0,9.0,83,0.00,,SKC,0.00,VWS V13.00,2013-05-11 10:40:00,
2013-05-11 06:45:00,68.0,62.7,30.02,SSW,196,4.0,8.0,83,0.00,,SKC,0.00,VWS V13.00,2013-05-11 10:45:00,
2013-05-11 06:50:00,68.0,62.7,30.02,SW,229,4.0,7.0,83,0.00,,SKC,0.00,VWS V13.00,2013-05-11 10:50:00,
2013-05-11 06:55:00,68.0,62.7,30.02,SW,217,6.0,7.0,83,0.00,,SKC,0.00,VWS V13.00,2013-05-11 10:55:00,
2013-05-11 07:00:00,68.0,62.7,30.02,SSW,198,2.0,7.0,83,0.00,,SKC,0.00,VWS V13.00,2013-05-11 11:00:00,
2013-05-11 07:05:00,68.1,62.8,30.02,SSW,202,3.0,7.0,83,0.00,,SKC,0.00,VWS V13.00,2013-05-11 11:05:00,
2013-05-11 07:10:00,68.2,62.8,30.02,SW,219,2.0,5.0,83,0.00,,SKC,0.00,VWS V13.00,2013-05-11 11:10:00,
2013-05-11 07:15:00,68.2,62.8,30.01,SSW,209,2.0,7.0,83,0.00,,SKC,0.00,VWS V13.00,2013-05-11 11:15:00,
2013-05-11 07:20:00,68.3,62.9,30.02,SW,218,3.0,7.0,83,0.00,,SKC,0.00,VWS V13.00,2013-05-11 11:20:00,
2013-05-11 07:25:00,68.3,62.9,30.02,SW,218,1.0,4.0,83,0.00,,SKC,0.00,VWS V13.00,2013-05-11 11:25:00,
2013-05-11 07:30:00,68.4,63.0,30.02,SW,223,3.0,5.0,83,0.00,,SKC,0.00,VWS V13.00,2013-05-11 11:30:00,
2013-05-11 07:35:00,68.5,63.1,30.02,WSW,246,1.0,5.0,83,0.00,,SKC,0.00,VWS V13.00,2013-05-11 11:35:00,
2013-05-11 07:40:00,68.5,63.1,30.02,SW,236,3.0,6.0,83,0.00,,SKC,0.00,VWS V13.00,2013-05-11 11:40:00,
2013-05-11 07:45:00,68.6,63.2,30.02,WSW,242,3.0,5.0,83,0.00,,SKC,0.00,VWS V13.00,2013-05-11 11:45:00,
2013-05-11 07:50:00,68.7,63.3,30.02,SSW,207,5.0,8.0,83,0.00,,SKC,0.00,VWS V13.00,2013-05-11 11:50:00,
2013-05-11 07:55:00,68.8,63.4,30.02,SW,232,2.0,7.0,83,0.00,,SKC,0.00,VWS V13.00,2013-05-11 11:55:00,
2013-05-11 08:00:00,68.9,63.5,30.02,SW,229,6.0,7.0,83,0.00,,SKC,0.00,VWS V13.00,2013-05-11 12:00:00,
2013-05-11 08:05:00,69.0,63.6,30.01,SSW,207,4.0,6.0,83,0.00,,SKC,0.00,VWS V13.00,2013-05-11 12:05:00,
2013-05-11 08:10:00,69.2,63.8,30.01,SSE,165,4.0,8.0,83,0.00,,SKC,0.00,VWS V13.00,2013-05-11 12:10:00,
2013-05-11 08:15:00,69.3,63.9,30.01,South,185,5.0,8.0,83,0.00,,SKC,0.00,VWS V13.00,2013-05-11 12:15:00,
2013-05-11 08:20:00,69.4,64.0,30.01,SSW,203,4.0,6.0,83,0.00,,SKC,0.00,VWS V13.00,2013-05-11 12:20:00,
2013-05-11 08:25:00,69.5,64.1,30.01,South,180,4.0,7.0,83,0.00,,SKC,0.00,VWS V13.00,2013-05-11 12:25:00,
2013-05-11 08:30:00,69.6,64.2,30.01,South,185,1.0,5.0,83,0.00,,SKC,0.00,VWS V13.00,2013-05-11 12:30:00,
2013-05-11 08:35:00,69.7,64.3,30.01,SSW,209,2.0,6.0,83,0.00,,SKC,0.00,VWS V13.00,2013-05-11 12:35:00,
2013-05-11 08:40:00,69.9,64.5,30.01,SW,225,5.0,7.0,83,0.00,,SKC,0.00,VWS V13.00,2013-05-11 12:40:00,
2013-05-11 08:45:00,70.0,64.6,30.01,SSW,209,6.0,9.0,83,0.00,,SKC,0.00,VWS V13.00,2013-05-11 12:45:00,
2013-05-11 08:50:00,70.2,64.8,30.00,South,175,1.0,7.0,83,0.00,,SKC,0.00,VWS V13.00,2013-05-11 12:50:00,
2013-05-11 08:55:00,70.3,64.9,30.00,SSW,194,4.0,8.0,83,0.00,,SKC,0.00,VWS V13.00,2013-05-11 12:55:00,
2013-05-11 09:00:00,70.4,65.0,30.00,SSW,201,6.0,9.0,83,0.00,,SKC,0.00,VWS V13.00,2013-05-11 13:00:00,
2013-05-11 09:05:00,70.5,65.1,30.00,SSW,203,3.0,8.0,83,0.00,,SKC,0.00,VWS V13.00,2013-05-11 13:05:00,
2013-05-11 09:10:00,70.5,65.1,30.00,SW,221,3.0,10.0,83,0.00,,SKC,0.00,VWS V13.00,2013-05-11 13:10:00,
2013-05-11 09:15:00,70.5,65.1,30.00,South,190,4.0,9.0,83,0.00,,SKC,0.00,VWS V13.00,2013-05-11 13:15:00,
2013-05-11 09:20:00,70.6,65.2,30.00,SSW,202,7.0,9.0,83,0.00,,SKC,0.00,VWS V13.00,2013-05-11 13:20:00,
2013-05-11 09:25:00,70.7,65.3,30.00,SSW,196,2.0,7.0,83,0.00,,SKC,0.00,VWS V13.00,2013-05-11 13:25:00,
2013-05-11 09:30:00,70.7,65.3,29.99,SW,219,4.0,10.0,83,0.00,,SKC,0.00,VWS V13.00,2013-05-11 13:30:00,
2013-05-11 09:35:00,70.7,65.3,29.99,SSE,155,1.0,8.0,83,0.00,,SKC,0.00,VWS V13.00,2013-05-11 13:35:00,
2013-05-11 09:40:00,70.8,65.4,29.99,SW,221,0.0,6.0,83,0.00,,SKC,0.00,VWS V13.00,2013-05-11 13:40:00,
2013-05-11 09:45:00,71.0,65.6,29.99,SW,223,0.0,9.0,83,0.00,,SKC,0.00,VWS V13.00,2013-05-11 13:45:00,
2013-05-11 09:50:00,71.2,65.8,29.99,South,181,4.0,8.0,83,0.00,,SKC,0.00,VWS V13.00,2013-05-11 13:50:00,
2013-05-11 09:55:00,71.3,65.9,29.99,SSW,192,4.0,9.0,83,0.00,,SKC,0.00,VWS V13.00,2013-05-11 13:55:00,
2013-05-11 10:00:00,71.6,66.2,29.99,SW,229,2.0,8.0,83,0.00,,SKC,0.00,VWS V13.00,2013-05-11 14:00:00,
2013-05-11 10:05:00,72.0,66.2,29.99,SW,218,1.0,7.0,82,0.00,,SKC,0.00,VWS V13.00,2013-05-11 14:05:00,
2013-05-11 10:10:00,72.1,66.7,29.98,SSW,193,1.0,8.0,83,0.00,,SKC,0.00,VWS V13.00,2013-05-11 14:10:00,
2013-05-11 10:15:00,72.4,66.6,29.98,SSW,212,3.0,9.0,82,0.00,,SKC,0.00,VWS V13.00,2013-05-11 14:15:00,
2013-05-11 10:20:00,72.6,66.8,29.99,SSW,193,4.0,8.0,82,0.00,,SKC,0.00,VWS V13.00,2013-05-11 14:20:00,
2013-05-11 10:25:00,72.7,66.9,29.99,SW,232,4.0,8.0,82,0.00,,SKC,0.00,VWS V13.00,2013-05-11 14:25:00,
2013-05-11 10:30:00,72.8,67.0,29.99,SSW,211,3.0,7.0,82,0.00,,SKC,0.00,VWS V13.00,2013-05-11 14:30:00,
2013-05-11 10:35:00,72.7,66.9,29.99,SSW,210,0.0,8.0,82,0.00,,SKC,0.00,VWS V13.00,2013-05-11 14:35:00,
2013-05-11 10:40:00,72.9,67.1,29.99,South,183,3.0,10.0,82,0.00,,SKC,0.00,VWS V13.00,2013-05-11 14:40:00,
2013-05-11 10:45:00,73.2,67.4,29.99,SSW,192,1.0,7.0,82,0.00,,SKC,0.00,VWS V13.00,2013-05-11 14:45:00,
2013-05-11 10:50:00,73.7,67.9,29.98,South,187,0.0,8.0,82,0.00,,SKC,0.00,VWS V13.00,2013-05-11 14:50:00,
2013-05-11 10:55:00,74.1,68.3,29.99,WSW,248,0.0,6.0,82,0.00,,SKC,0.00,VWS V13.00,2013-05-11 14:55:00,
2013-05-11 11:00:00,74.4,68.6,29.98,SSW,207,1.0,7.0,82,0.00,,SKC,0.00,VWS V13.00,2013-05-11 15:00:00,
2013-05-11 11:05:00,74.8,68.9,29.98,South,186,1.0,9.0,82,0.00,,SKC,0.00,VWS V13.00,2013-05-11 15:05:00,
2013-05-11 11:10:00,75.3,69.4,29.98,SSW,205,1.0,7.0,82,0.00,,SKC,0.00,VWS V13.00,2013-05-11 15:10:00,
2013-05-11 11:15:00,75.4,69.5,29.98,SSE,167,2.0,10.0,82,0.00,,SKC,0.00,VWS V13.00,2013-05-11 15:15:00,
2013-05-11 11:20:00,75.1,68.9,29.98,South,186,5.0,11.0,81,0.00,,SKC,0.00,VWS V13.00,2013-05-11 15:20:00,
2013-05-11 11:25:00,74.7,68.5,29.98,South,187,5.0,11.0,81,0.00,,SKC,0.00,VWS V13.00,2013-05-11 15:25:00,
2013-05-11 11:30:00,74.6,68.4,29.98,SSE,167,7.0,10.0,81,0.00,,SKC,0.00,VWS V13.00,2013-05-11 15:30:00,
2013-05-11 11:35:00,74.9,69.0,29.97,SE,128,1.0,9.0,82,0.00,,SKC,0.00,VWS V13.00,2013-05-11 15:35:00,
2013-05-11 11:40:00,75.1,68.9,29.97,SSW,202,4.0,8.0,81,0.00,,SKC,0.00,VWS V13.00,2013-05-11 15:40:00,
2013-05-11 11:45:00,75.3,69.1,29.96,SE,142,2.0,9.0,81,0.00,,SKC,0.00,VWS V13.00,2013-05-11 15:45:00,
2013-05-11 11:50:00,75.4,69.2,29.96,SSE,163,5.0,9.0,81,0.00,,SKC,0.00,VWS V13.00,2013-05-11 15:50:00,
2013-05-11 11:55:00,75.4,69.2,29.97,SSW,199,9.0,12.0,81,0.00,,SKC,0.00,VWS V13.00,2013-05-11 15:55:00,
2013-05-11 12:00:00,75.3,69.1,29.97,South,175,11.0,15.0,81,0.00,,SKC,0.00,VWS V13.00,2013-05-11 16:00:00,
2013-05-11 12:05:00,75.2,69.0,29.97,SSE,166,6.0,14.0,81,0.00,,SKC,0.00,VWS V13.00,2013-05-11 16:05:00,
2013-05-11 12:10:00,74.9,68.7,29.97,South,169,10.0,13.0,81,0.00,,SKC,0.00,VWS V13.00,2013-05-11 16:10:00,
2013-05-11 12:15:00,74.9,68.7,29.97,South,187,3.0,14.0,81,0.00,,SKC,0.00,VWS V13.00,2013-05-11 16:15:00,
2013-05-11 12:20:00,75.0,68.8,29.96,South,184,4.0,12.0,81,0.00,,SKC,0.00,VWS V13.00,2013-05-11 16:20:00,
2013-05-11 12:25:00,75.1,68.9,29.96,SSW,196,10.0,16.0,81,0.00,,SKC,0.00,VWS V13.00,2013-05-11 16:25:00,
2013-05-11 12:30:00,75.4,69.2,29.97,SSE,164,8.0,18.0,81,0.00,,SKC,0.00,VWS V13.00,2013-05-11 16:30:00,
2013-05-11 12:35:00,75.7,69.5,29.96,South,184,1.0,13.0,81,0.00,,SKC,0.00,VWS V13.00,2013-05-11 16:35:00,
2013-05-11 12:40:00,75.9,69.7,29.96,South,180,7.0,11.0,81,0.00,,SKC,0.00,VWS V13.00,2013-05-11 16:40:00,
2013-05-11 12:45:00,76.0,69.4,29.96,SSW,213,6.0,9.0,80,0.00,,SKC,0.00,VWS V13.00,2013-05-11 16:45:00,
2013-05-11 12:50:00,76.0,69.4,29.96,South,191,4.0,11.0,80,0.00,,SKC,0.00,VWS V13.00,2013-05-11 16:50:00,
2013-05-11 12:55:00,76.0,69.4,29.96,WSW,237,4.0,13.0,80,0.00,,SKC,0.00,VWS V13.00,2013-05-11 16:55:00,
2013-05-11 13:00:00,76.0,69.4,29.97,WSW,244,2.0,12.0,80,0.00,,SKC,0.00,VWS V13.00,2013-05-11 17:00:00,
2013-05-11 13:05:00,76.0,69.4,29.96,South,190,4.0,14.0,80,0.00,,SKC,0.00,VWS V13.00,2013-05-11 17:05:00,
2013-05-11 13:10:00,75.7,69.1,29.96,South,184,10.0,11.0,80,0.00,,SKC,0.00,VWS V13.00,2013-05-11 17:10:00,
2013-05-11 13:15:00,75.5,68.9,29.96,South,175,7.0,13.0,80,0.00,,SKC,0.00,VWS V13.00,2013-05-11 17:15:00,
2013-05-11 13:20:00,75.6,69.0,29.96,SSW,209,7.0,17.0,80,0.00,,SKC,0.00,VWS V13.00,2013-05-11 17:20:00,
2013-05-11 13:25:00,75.7,69.1,29.95,South,185,12.0,14.0,80,0.00,,SKC,0.00,VWS V13.00,2013-05-11 17:25:00,
2013-05-11 13:30:00,75.5,68.9,29.95,SW,223,2.0,15.0,80,0.00,,SKC,0.00,VWS V13.00,2013-05-11 17:30:00,
2013-05-11 13:35:00,75.4,68.8,29.94,SSW,192,7.0,14.0,80,0.00,,SKC,0.00,VWS V13.00,2013-05-11 17:35:00,
2013-05-11 13:40:00,75.4,68.8,29.94,SE,130,0.0,16.0,80,0.00,,SKC,0.00,VWS V13.00,2013-05-11 17:40:00,
2013-05-11 13:45:00,75.7,69.1,29.94,SSW,195,13.0,16.0,80,0.00,,SKC,0.00,VWS V13.00,2013-05-11 17:45:00,
2013-05-11 13:50:00,75.7,69.1,29.92,SSE,157,14.0,16.0,80,0.00,,SKC,0.00,VWS V13.00,2013-05-11 17:50:00,
2013-05-11 13:55:00,75.5,68.9,29.92,South,180,11.0,16.0,80,0.00,,SKC,0.00,VWS V13.00,2013-05-11 17:55:00,
2013-05-11 14:00:00,75.3,68.7,29.91,SSW,201,8.0,15.0,80,0.00,,SKC,0.00,VWS V13.00,2013-05-11 18:00:00,
2013-05-11 14:05:00,75.1,68.5,29.91,South,175,7.0,19.0,80,0.00,,SKC,0.00,VWS V13.00,2013-05-11 18:05:00,
2013-05-11 14:10:00,75.1,68.5,29.92,SSE,165,6.0,17.0,80,0.00,,SKC,0.00,VWS V13.00,2013-05-11 18:10:00,
2013-05-11 14:15:00,75.0,68.4,29.92,South,175,10.0,16.0,80,0.00,,SKC,0.00,VWS V13.00,2013-05-11 18:15:00,
2013-05-11 14:20:00,74.9,68.3,29.92,SSE,157,5.0,21.0,80,0.00,,SKC,0.00,VWS V13.00,2013-05-11 18:20:00,
2013-05-11 14:25:00,75.1,68.5,29.92,SSW,193,9.0,20.0,80,0.00,,SKC,0.00,VWS V13.00,2013-05-11 18:25:00,
2013-05-11 14:30:00,75.2,68.6,29.92,SSW,211,8.0,16.0,80,0.00,,SKC,0.00,VWS V13.00,2013-05-11 18:30:00,
2013-05-11 14:35:00,75.2,68.6,29.92,SSW,201,6.0,15.0,80,0.00,,SKC,0.00,VWS V13.00,2013-05-11 18:35:00,
2013-05-11 14:40:00,75.3,68.7,29.92,SSW,209,9.0,15.0,80,0.00,,SKC,0.00,VWS V13.00,2013-05-11 18:40:00,
2013-05-11 14:45:00,75.4,68.8,29.91,SW,217,4.0,17.0,80,0.00,,SKC,0.00,VWS V13.00,2013-05-11 18:45:00,
2013-05-11 14:50:00,75.5,68.9,29.91,SSE,157,8.0,14.0,80,0.00,,SKC,0.00,VWS V13.00,2013-05-11 18:50:00,
2013-05-11 14:55:00,75.5,68.9,29.91,SSW,199,9.0,13.0,80,0.00,,SKC,0.00,VWS V13.00,2013-05-11 18:55:00,
2013-05-11 15:00:00,75.5,68.9,29.91,SSW,205,3.0,16.0,80,0.00,,SKC,0.00,VWS V13.00,2013-05-11 19:00:00,
2013-05-11 15:05:00,75.6,69.0,29.90,SW,223,8.0,12.0,80,0.00,,SKC,0.00,VWS V13.00,2013-05-11 19:05:00,
2013-05-11 15:10:00,75.5,68.9,29.90,South,171,6.0,12.0,80,0.00,,SKC,0.00,VWS V13.00,2013-05-11 19:10:00,
2013-05-11 15:15:00,75.4,68.8,29.90,SE,143,2.0,15.0,80,0.00,,SKC,0.00,VWS V13.00,2013-05-11 19:15:00,
2013-05-11 15:20:00,75.2,68.2,29.90,SW,223,5.0,13.0,79,0.00,,SKC,0.00,VWS V13.00,2013-05-11 19:20:00,
2013-05-11 15:25:00,75.0,68.1,29.90,SW,233,14.0,17.0,79,0.00,,SKC,0.00,VWS V13.00,2013-05-11 19:25:00,
2013-05-11 15:30:00,75.0,68.1,29.89,South,188,7.0,18.0,79,0.00,,SKC,0.00,VWS V13.00,2013-05-11 19:30:00,
2013-05-11 15:35:00,75.1,68.2,29.89,SSW,192,8.0,12.0,79,0.00,,SKC,0.00,VWS V13.00,2013-05-11 19:35:00,
2013-05-11 15:40:00,75.3,68.3,29.89,South,169,7.0,13.0,79,0.00,,SKC,0.00,VWS V13.00,2013-05-11 19:40:00,
2013-05-11 15:45:00,75.2,68.2,29.89,WSW,243,4.0,12.0,79,0.00,,SKC,0.00,VWS V13.00,2013-05-11 19:45:00,
2013-05-11 15:50:00,75.0,68.1,29.89,SSW,196,6.0,14.0,79,0.00,,SKC,0.00,VWS V13.00,2013-05-11 19:50:00,
2013-05-11 15:55:00,74.6,67.7,29.89,SSW,200,10.0,15.0,79,0.00,,SKC,0.00,VWS V13.00,2013-05-11 19:55:00,
2013-05-11 16:00:00,74.3,67.7,29.88,WSW,238,5.0,12.0,80,0.00,,SKC,0.00,VWS V13.00,2013-05-11 20:00:00,
2013-05-11 16:05:00,74.1,67.5,29.88,SSW,201,7.0,18.0,80,0.00,,SKC,0.00,VWS V13.00,2013-05-11 20:05:00,
2013-05-11 16:10:00,73.9,67.3,29.88,SW,227,7.0,13.0,80,0.00,,SKC,0.00,VWS V13.00,2013-05-11 20:10:00,
2013-05-11 16:15:00,73.7,67.2,29.88,South,186,5.0,15.0,80,0.00,,SKC,0.00,VWS V13.00,2013-05-11 20:15:00,
2013-05-11 16:20:00,73.5,67.0,29.88,SSW,194,13.0,15.0,80,0.00,,SKC,0.00,VWS V13.00,2013-05-11 20:20:00,
2013-05-11 16:25:00,73.3,66.8,29.88,SSW,205,10.0,16.0,80,0.00,,SKC,0.00,VWS V13.00,2013-05-11 20:25:00,
2013-05-11 16:30:00,73.3,66.8,29.88,SSE,161,6.0,17.0,80,0.00,,SKC,0.00,VWS V13.00,2013-05-11 20:30:00,
2013-05-11 16:35:00,73.3,66.8,29.88,SSW,202,13.0,14.0,80,0.00,,SKC,0.00,VWS V13.00,2013-05-11 20:35:00,
2013-05-11 16:40:00,73.6,67.1,29.88,SW,215,11.0,14.0,80,0.00,,SKC,0.00,VWS V13.00,2013-05-11 20:40:00,
2013-05-11 16:45:00,73.7,67.2,29.88,SW,217,9.0,16.0,80,0.00,,SKC,0.00,VWS V13.00,2013-05-11 20:45:00,
2013-05-11 16:50:00,73.5,67.0,29.88,WSW,237,16.0,16.0,80,0.00,,SKC,0.00,VWS V13.00,2013-05-11 20:50:00,
2013-05-11 16:55:00,73.3,66.8,29.88,SSW,213,7.0,16.0,80,0.00,,SKC,0.00,VWS V13.00,2013-05-11 20:55:00,
2013-05-11 17:00:00,73.2,66.7,29.89,SW,225,5.0,14.0,80,0.00,,SKC,0.00,VWS V13.00,2013-05-11 21:00:00,
2013-05-11 17:05:00,73.2,66.7,29.89,SSW,209,9.0,14.0,80,0.00,,SKC,0.00,VWS V13.00,2013-05-11 21:05:00,
2013-05-11 17:10:00,73.1,66.6,29.89,WSW,245,8.0,16.0,80,0.00,,SKC,0.00,VWS V13.00,2013-05-11 21:10:00,
2013-05-11 17:15:00,73.0,66.5,29.89,South,175,9.0,17.0,80,0.00,,SKC,0.00,VWS V13.00,2013-05-11 21:15:00,
2013-05-11 17:20:00,72.9,66.4,29.89,SE,145,2.0,14.0,80,0.00,,SKC,0.00,VWS V13.00,2013-05-11 21:20:00,
2013-05-11 17:25:00,72.8,66.3,29.89,SW,224,8.0,12.0,80,0.00,,SKC,0.00,VWS V13.00,2013-05-11 21:25:00,
2013-05-11 17:30:00,72.6,66.1,29.88,SW,223,5.0,10.0,80,0.00,,SKC,0.00,VWS V13.00,2013-05-11 21:30:00,
2013-05-11 17:35:00,72.5,66.0,29.88,SW,214,5.0,13.0,80,0.00,,SKC,0.00,VWS V13.00,2013-05-11 21:35:00,
2013-05-11 17:40:00,72.2,65.7,29.88,SSW,194,3.0,16.0,80,0.00,,SKC,0.00,VWS V13.00,2013-05-11 21:40:00,
2013-05-11 17:45:00,71.9,65.4,29.88,WSW,243,5.0,16.0,80,0.00,,SKC,0.00,VWS V13.00,2013-05-11 21:45:00,
2013-05-11 17:50:00,71.5,65.0,29.88,SSW,204,6.0,18.0,80,0.00,,SKC,0.00,VWS V13.00,2013-05-11 21:50:00,
2013-05-11 17:55:00,71.3,64.8,29.88,South,172,9.0,17.0,80,0.00,,SKC,0.00,VWS V13.00,2013-05-11 21:55:00,
2013-05-11 18:00:00,71.1,64.6,29.88,WSW,238,8.0,18.0,80,0.00,,SKC,0.00,VWS V13.00,2013-05-11 22:00:00,
2013-05-11 18:05:00,70.9,64.4,29.88,South,172,14.0,17.0,80,0.00,,SKC,0.00,VWS V13.00,2013-05-11 22:05:00,
2013-05-11 18:10:00,70.7,63.9,29.87,SSW,210,9.0,17.0,79,0.00,,SKC,0.00,VWS V13.00,2013-05-11 22:10:00,
2013-05-11 18:15:00,70.6,64.1,29.87,South,183,9.0,15.0,80,0.00,,SKC,0.00,VWS V13.00,2013-05-11 22:15:00,
2013-05-11 18:20:00,70.6,64.1,29.87,SSW,197,8.0,17.0,80,0.00,,SKC,0.00,VWS V13.00,2013-05-11 22:20:00,
2013-05-11 18:25:00,70.6,64.1,29.87,SW,224,8.0,16.0,80,0.00,,SKC,0.00,VWS V13.00,2013-05-11 22:25:00,
2013-05-11 18:30:00,70.5,64.0,29.87,WSW,237,9.0,22.0,80,0.00,,SKC,0.00,VWS V13.00,2013-05-11 22:30:00,
2013-05-11 18:35:00,70.4,63.9,29.87,SSW,210,10.0,15.0,80,0.00,,SKC,0.00,VWS V13.00,2013-05-11 22:35:00,
2013-05-11 18:40:00,70.4,63.9,29.87,SSW,194,9.0,17.0,80,0.00,,SKC,0.00,VWS V13.00,2013-05-11 22:40:00,
2013-05-11 18:45:00,70.4,63.9,29.88,SSW,213,10.0,16.0,80,0.00,,SKC,0.00,VWS V13.00,2013-05-11 22:45:00,
2013-05-11 18:50:00,70.4,63.9,29.88,SSW,209,7.0,17.0,80,0.00,,SKC,0.00,VWS V13.00,2013-05-11 22:50:00,
2013-05-11 18:55:00,70.3,63.8,29.88,SW,234,9.0,16.0,80,0.00,,SKC,0.00,VWS V13.00,2013-05-11 22:55:00,
2013-05-11 19:00:00,70.3,63.8,29.88,SSW,202,9.0,17.0,80,0.00,,SKC,0.00,VWS V13.00,2013-05-11 23:00:00,
2013-05-11 19:05:00,70.2,63.8,29.87,SSW,207,3.0,17.0,80,0.00,,SKC,0.00,VWS V13.00,2013-05-11 23:05:00,
2013-05-11 19:10:00,70.1,63.7,29.87,WSW,252,14.0,16.0,80,0.00,,SKC,0.00,VWS V13.00,2013-05-11 23:10:00,
2013-05-11 19:15:00,70.1,63.7,29.87,SSW,198,7.0,17.0,80,0.00,,SKC,0.00,VWS V13.00,2013-05-11 23:15:00,
2013-05-11 19:20:00,70.0,63.5,29.87,South,174,7.0,17.0,80,0.00,,SKC,0.00,VWS V13.00,2013-05-11 23:20:00,
2013-05-11 19:25:00,69.9,63.5,29.87,SW,224,12.0,17.0,80,0.00,,SKC,0.00,VWS V13.00,2013-05-11 23:25:00,
2013-05-11 19:30:00,69.8,63.4,29.87,South,186,6.0,13.0,80,0.00,,SKC,0.00,VWS V13.00,2013-05-11 23:30:00,
2013-05-11 19:35:00,69.7,63.3,29.88,South,188,6.0,13.0,80,0.00,,SKC,0.00,VWS V13.00,2013-05-11 23:35:00,
2013-05-11 19:40:00,69.6,63.2,29.88,South,180,9.0,14.0,80,0.00,,SKC,0.00,VWS V13.00,2013-05-11 23:40:00,
2013-05-11 19:45:00,69.5,63.1,29.88,SSW,206,11.0,14.0,80,0.00,,SKC,0.00,VWS V13.00,2013-05-11 23:45:00,
2013-05-11 19:50:00,69.3,62.9,29.88,SW,217,14.0,16.0,80,0.00,,SKC,0.00,VWS V13.00,2013-05-11 23:50:00,
2013-05-11 19:55:00,69.3,62.9,29.88,South,184,10.0,14.0,80,0.00,,SKC,0.00,VWS V13.00,2013-05-11 23:55:00,
2013-05-11 20:00:00,69.2,62.8,29.88,SW,219,6.0,15.0,80,0.00,,SKC,0.00,VWS V13.00,2013-05-12 00:00:00,
2013-05-11 20:05:00,69.2,62.8,29.88,SSW,211,8.0,13.0,80,0.00,,SKC,0.00,VWS V13.00,2013-05-12 00:05:00,
2013-05-11 20:10:00,69.2,62.8,29.87,SSW,212,4.0,16.0,80,0.00,,SKC,0.00,VWS V13.00,2013-05-12 00:10:00,
2013-05-11 20:15:00,69.1,62.7,29.87,WSW,240,6.0,12.0,80,0.00,,SKC,0.00,VWS V13.00,2013-05-12 00:15:00,
2013-05-11 20:20:00,69.0,62.6,29.88,SSW,206,9.0,14.0,80,0.00,,SKC,0.00,VWS V13.00,2013-05-12 00:20:00,
2013-05-11 20:25:00,69.1,62.7,29.88,South,188,10.0,14.0,80,0.00,,SKC,0.00,VWS V13.00,2013-05-12 00:25:00,
2013-05-11 20:30:00,69.2,63.1,29.88,SW,222,6.0,17.0,81,0.00,,SKC,0.00,VWS V13.00,2013-05-12 00:30:00,
2013-05-11 20:35:00,69.2,63.1,29.88,SW,219,7.0,15.0,81,0.00,,SKC,0.00,VWS V13.00,2013-05-12 00:35:00,
2013-05-11 20:40:00,69.2,63.1,29.88,WSW,238,5.0,13.0,81,0.00,,SKC,0.00,VWS V13.00,2013-05-12 00:40:00,
2013-05-11 20:45:00,69.1,63.0,29.88,SW,219,6.0,13.0,81,0.00,,SKC,0.00,VWS V13.00,2013-05-12 00:45:00,
2013-05-11 20:50:00,69.1,63.0,29.88,SSW,198,8.0,18.0,81,0.00,,SKC,0.00,VWS V13.00,2013-05-12 00:50:00,
2013-05-11 20:55:00,69.1,63.0,29.88,SW,215,10.0,12.0,81,0.00,,SKC,0.00,VWS V13.00,2013-05-12 00:55:00,
2013-05-11 21:00:00,69.1,63.0,29.89,SSW,212,6.0,17.0,81,0.00,,SKC,0.00,VWS V13.00,2013-05-12 01:00:00,
2013-05-11 21:05:00,69.1,63.0,29.89,WSW,238,9.0,14.0,81,0.00,,SKC,0.00,VWS V13.00,2013-05-12 01:05:00,
2013-05-11 21:10:00,69.1,63.0,29.89,South,190,7.0,13.0,81,0.00,,SKC,0.00,VWS V13.00,2013-05-12 01:10:00,
2013-05-11 21:15:00,69.1,63.0,29.89,SSW,206,8.0,16.0,81,0.00,,SKC,0.00,VWS V13.00,2013-05-12 01:15:00,
2013-05-11 21:20:00,69.1,63.0,29.89,SW,233,10.0,13.0,81,0.00,,SKC,0.00,VWS V13.00,2013-05-12 01:20:00,
2013-05-11 21:25:00,69.1,63.0,29.89,SW,220,10.0,16.0,81,0.00,,SKC,0.00,VWS V13.00,2013-05-12 01:25:00,
2013-05-11 21:30:00,69.0,62.9,29.89,SW,229,4.0,11.0,81,0.00,,SKC,0.00,VWS V13.00,2013-05-12 01:30:00,
2013-05-11 21:35:00,68.9,62.8,29.89,WSW,248,4.0,15.0,81,0.00,,SKC,0.00,VWS V13.00,2013-05-12 01:35:00,
2013-05-11 21:40:00,68.9,62.8,29.90,SW,214,7.0,15.0,81,0.00,,SKC,0.00,VWS V13.00,2013-05-12 01:40:00,
2013-05-11 21:45:00,68.9,62.8,29.90,SW,221,5.0,13.0,81,0.00,,SKC,0.00,VWS V13.00,2013-05-12 01:45:00,
2013-05-11 21:50:00,68.8,62.7,29.89,SW,232,4.0,13.0,81,0.00,,SKC,0.00,VWS V13.00,2013-05-12 01:50:00,
2013-05-11 21:55:00,68.8,62.7,29.89,WSW,244,9.0,14.0,81,0.00,,SKC,0.00,VWS V13.00,2013-05-12 01:55:00,
2013-05-11 22:00:00,68.7,62.6,29.89,SW,234,5.0,13.0,81,0.00,,SKC,0.00,VWS V13.00,2013-05-12 02:00:00,
2013-05-11 22:05:00,68.7,62.6,29.88,South,171,8.0,15.0,81,0.00,,SKC,0.00,VWS V13.00,2013-05-12 02:05:00,
2013-05-11 22:10:00,68.7,62.6,29.89,SW,223,8.0,17.0,81,0.00,,SKC,0.00,VWS V13.00,2013-05-12 02:10:00,
2013-05-11 22:15:00,68.6,62.5,29.89,South,171,7.0,14.0,81,0.00,,SKC,0.00,VWS V13.00,2013-05-12 02:15:00,
2013-05-11 22:20:00,68.6,62.5,29.89,SSW,204,5.0,14.0,81,0.00,,SKC,0.00,VWS V13.00,2013-05-12 02:20:00,
2013-05-11 22:25:00,68.6,62.5,29.89,SSW,205,6.0,12.0,81,0.00,,SKC,0.00,VWS V13.00,2013-05-12 02:25:00,
2013-05-11 22:30:00,68.5,62.5,29.89,SW,234,7.0,11.0,81,0.00,,SKC,0.00,VWS V13.00,2013-05-12 02:30:00,
2013-05-11 22:35:00,68.4,62.3,29.89,SSW,198,2.0,12.0,81,0.00,,SKC,0.00,VWS V13.00,2013-05-12 02:35:00,
2013-05-11 22:40:00,68.4,62.3,29.89,WSW,249,4.0,10.0,81,0.00,,SKC,0.00,VWS V13.00,2013-05-12 02:40:00,
2013-05-11 22:45:00,68.4,62.3,29.89,SW,224,7.0,12.0,81,0.00,,SKC,0.00,VWS V13.00,2013-05-12 02:45:00,
2013-05-11 22:50:00,68.3,62.2,29.89,WSW,243,8.0,11.0,81,0.00,,SKC,0.00,VWS V13.00,2013-05-12 02:50:00,
2013-05-11 22:55:00,68.3,62.2,29.89,West,273,6.0,12.0,81,0.00,,SKC,0.00,VWS V13.00,2013-05-12 02:55:00,
2013-05-11 23:00:00,68.3,62.2,29.89,SW,216,4.0,12.0,81,0.00,,SKC,0.00,VWS V13.00,2013-05-12 03:00:00,
2013-05-11 23:05:00,68.2,62.2,29.89,SW,221,11.0,12.0,81,0.00,,SKC,0.00,VWS V13.00,2013-05-12 03:05:00,
2013-05-11 23:10:00,68.3,62.6,29.89,SW,229,9.0,13.0,82,0.00,,SKC,0.00,VWS V13.00,2013-05-12 03:10:00,
2013-05-11 23:15:00,68.3,62.6,29.89,WSW,244,9.0,12.0,82,0.00,,SKC,0.00,VWS V13.00,2013-05-12 03:15:00,
2013-05-11 23:20:00,68.3,62.6,29.89,WSW,244,3.0,11.0,82,0.00,,SKC,0.00,VWS V13.00,2013-05-12 03:20:00,
2013-05-11 23:25:00,68.3,62.6,29.89,SW,219,7.0,12.0,82,0.00,,SKC,0.00,VWS V13.00,2013-05-12 03:25:00,
2013-05-11 23:30:00,68.3,62.6,29.88,WSW,243,7.0,12.0,82,0.00,,SKC,0.00,VWS V13.00,2013-05-12 03:30:00,
2013-05-11 23:35:00,68.3,62.6,29.88,WSW,242,5.0,12.0,82,0.00,,SKC,0.00,VWS V13.00,2013-05-12 03:35:00,
2013-05-11 23:40:00,68.3,62.6,29.88,SW,227,6.0,13.0,82,0.00,,SKC,0.00,VWS V13.00,2013-05-12 03:40:00,
2013-05-11 23:45:00,68.2,62.5,29.88,WSW,238,12.0,14.0,82,0.00,,SKC,0.00,VWS V13.00,2013-05-12 03:45:00,
2013-05-11 23:50:00,68.2,62.5,29.88,WSW,240,6.0,12.0,82,0.00,,SKC,0.00,VWS V13.00,2013-05-12 03:50:00,
2013-05-11 23:55:00,68.2,62.5,29.88,West,275,7.0,12.0,82,0.00,,SKC,0.00,VWS V13.00,2013-05-12 03:55:00,